WetterOnline ( https://www.wetteronline.de )

Wetter aktuell Bad Belzig

Aktuelles Wetter: Wiesenburg (188m)

6-stündlich | Neueste Meldungen
Ortszeit Temperatur Wetter
Mo, 26.02. 7:00 2.1° C bedeckt
Mo, 26.02. 1:00 1.8° C leicht bewölkt
So, 25.02. 19:00 6.5° C bewölkt
So, 25.02. 13:00 10.2° C wolkig
So, 25.02. 7:00 0.8° C wolkenlos
So, 25.02. 1:00 4.0° C wolkenlos
Sa, 24.02. 19:00 6.0° C wolkenlos
Sa, 24.02. 13:00 8.3° C bewölkt
Ortszeit Temperatur Wetter
Mo, 26.02. 12:00 7.8° C bewölkt
Mo, 26.02. 11:50 7.8° C bewölkt
Mo, 26.02. 11:40 7.8° C bedeckt
Mo, 26.02. 11:30 7.1° C bedeckt
Mo, 26.02. 11:20 7.1° C bedeckt
Mo, 26.02. 11:10 7.1° C bedeckt
Mo, 26.02. 11:00 5.9° C bedeckt
Mo, 26.02. 10:30 5.0° C bedeckt
Mo, 26.02. 10:00 3.6° C wolkig
Mo, 26.02. 9:30 3.2° C wolkig
Mo, 26.02. 9:00 2.8° C bedeckt
Ortszeit Relative Feuchte Sichtweite
Mo, 26.02. 7:00 85% 50 km
Mo, 26.02. 1:00 89% 60 km
So, 25.02. 19:00 70% 60 km
So, 25.02. 13:00 53% 40 km
So, 25.02. 7:00 91% 55 km
So, 25.02. 1:00 71% >70 km
Sa, 24.02. 19:00 69% 65 km
Sa, 24.02. 13:00 66% >70 km
Ortszeit Relative Feuchte Sichtweite
Mo, 26.02. 12:00 72% 35 km
Mo, 26.02. 11:50 72% -
Mo, 26.02. 11:40 72% -
Mo, 26.02. 11:30 75% 30 km
Mo, 26.02. 11:20 75% -
Mo, 26.02. 11:10 76% -
Mo, 26.02. 11:00 79% 30 km
Mo, 26.02. 10:30 83% 27 km
Mo, 26.02. 10:00 87% 25 km
Mo, 26.02. 9:30 88% 24 km
Mo, 26.02. 9:00 90% 24 km
Ortszeit Niederschlagsmenge Niederschlagsart
Mo, 26.02. 7:00 0.0 l/m2 in 12 Std. -
Mo, 26.02. 1:00 0.0 l/m2 in 6 Std. -
So, 25.02. 19:00 0.0 l/m2 in 12 Std. -
So, 25.02. 13:00 0.0 l/m2 in 6 Std. -
So, 25.02. 7:00 0.0 l/m2 in 12 Std. -
So, 25.02. 1:00 0.0 l/m2 in 6 Std. -
Sa, 24.02. 19:00 0.0 l/m2 in 12 Std. -
Sa, 24.02. 13:00 0.0 l/m2 in 6 Std. -
Ortszeit Niederschlagsmenge Niederschlagsart
Mo, 26.02. 12:00 0.0 l/m2 in 1 Std. -
Mo, 26.02. 11:50 keine Meldung -
Mo, 26.02. 11:40 keine Meldung -
Mo, 26.02. 11:30 0.0 l/m2 in 30 Min -
Mo, 26.02. 11:20 keine Meldung -
Mo, 26.02. 11:10 keine Meldung -
Mo, 26.02. 11:00 0.0 l/m2 in 1 Std. -
Mo, 26.02. 10:30 0.0 l/m2 in 30 Min -
Mo, 26.02. 10:00 0.0 l/m2 in 1 Std. -
Mo, 26.02. 9:30 0.0 l/m2 in 30 Min -
Mo, 26.02. 9:00 0.0 l/m2 in 1 Std. -
Ortszeit Stärke Spitze Richtung
km/h Bft. km/h Grad Sektor
Mo, 26.02. 7:00 14 3 18 100° O
Mo, 26.02. 1:00 7 2 14 110° O
So, 25.02. 19:00 9 2 35 200° S
So, 25.02. 13:00 13 3 33 190° S
So, 25.02. 7:00 6 1 20 150° SO
So, 25.02. 1:00 11 2 29 200° S
Sa, 24.02. 19:00 18 3 43 210° SW
Sa, 24.02. 13:00 15 3 33 200° S
Ortszeit Stärke Spitze Richtung
km/h Bft. km/h Grad Sektor
Mo, 26.02. 12:00 18 3 25 80° O
Mo, 26.02. 11:50 18 3 - 80° O
Mo, 26.02. 11:40 15 3 - 90° O
Mo, 26.02. 11:30 11 2 18 80° O
Mo, 26.02. 11:20 11 2 - 80° O
Mo, 26.02. 11:10 9 2 - 70° O
Mo, 26.02. 11:00 7 2 14 80° O
Mo, 26.02. 10:30 11 2 14 80° O
Mo, 26.02. 10:00 11 2 22 90° O
Mo, 26.02. 9:30 17 3 22 90° O
Mo, 26.02. 9:00 18 3 25 100° O
Ortszeit Untergrenze Bedeckung Gattung
total tief tief mittel hoch
Mo, 26.02. 7:00 6000 m 8/8 8/8 - - -
Mo, 26.02. 1:00 9000 m 6/8 0/8 - - -
So, 25.02. 19:00 1500 m 7/8 7/8 - - -
So, 25.02. 13:00 5400 m 8/8 8/8 - - -
So, 25.02. 7:00 - 0/8 0/8 - - -
So, 25.02. 1:00 - 0/8 0/8 - - -
Sa, 24.02. 19:00 - 0/8 0/8 - - -
Sa, 24.02. 13:00 780 m 7/8 7/8 - - -
Ortszeit Bedeckungsgrad in Achtel und Wolkenuntergrenze
Mo, 26.02. 12:00 7(3300m)
Mo, 26.02. 11:50 7(3300m)
Mo, 26.02. 11:40 8
Mo, 26.02. 11:30 8(3600m) 8(6300m)
Mo, 26.02. 11:20 8(3600m) 8(6300m)
Mo, 26.02. 11:10 8
Mo, 26.02. 11:00 8(3900m)
Mo, 26.02. 10:30 8(4200m)
Mo, 26.02. 10:00 4(4500m) 6(5100m)
Mo, 26.02. 9:30 4(4800m) 5(5400m) 6(6300m)
Mo, 26.02. 9:00 3(5400m) 8(6300m)
Ortszeit Luftdruck NN (hPa) Tendenz (hPa in 3 Std.)
Mo, 26.02. 7:00 1005 + 0,8
Mo, 26.02. 1:00 1005 0,0
So, 25.02. 19:00 1005 - 0,1
So, 25.02. 13:00 1005 - 1,7
So, 25.02. 7:00 1008 - 0,3
So, 25.02. 1:00 1008 + 0,6
Sa, 24.02. 19:00 1006 + 2,2
Sa, 24.02. 13:00 1003 + 1,5
Ortszeit Luftdruck NN (hPa) Tendenz (hPa in 3 Std.)
Mo, 26.02. 12:00 1006 + 0,7
Mo, 26.02. 11:50 1006 keine Meldung
Mo, 26.02. 11:40 1006 keine Meldung
Mo, 26.02. 11:30 1006 + 0,8
Mo, 26.02. 11:20 1006 keine Meldung
Mo, 26.02. 11:10 1006 keine Meldung
Mo, 26.02. 11:00 1006 + 0,9
Mo, 26.02. 10:30 1006 + 0,7
Mo, 26.02. 10:00 1006 + 0,9
Mo, 26.02. 9:30 1006 + 1,2
Mo, 26.02. 9:00 1006 + 0,9
Ortszeit Schneehöhe (cm)
Mo, 26.02. 7:00 0
Mo, 26.02. 1:00 0
So, 25.02. 19:00 0
So, 25.02. 13:00 0
So, 25.02. 7:00 0
So, 25.02. 1:00 0
Sa, 24.02. 19:00 0
Sa, 24.02. 13:00 0
Ortszeit Schneehöhe (cm)
Mo, 26.02. 12:00 0
Mo, 26.02. 11:50 0
Mo, 26.02. 11:40 -
Mo, 26.02. 11:30 0
Mo, 26.02. 11:20 0
Mo, 26.02. 11:10 -
Mo, 26.02. 11:00 0
Mo, 26.02. 10:30 0
Mo, 26.02. 10:00 0
Mo, 26.02. 9:30 0
Mo, 26.02. 9:00 0
Link zu dieser Seite / Seite empfehlen

Das Wetter in ...